weather.gov     
National Weather Service

Terminal Aerodrome Forecast
NWS Homepage
This page is being discontinued on March 12, 2014.
The same data is available at this site. Please update your bookmarks.
Thank you, and we apologize for the inconvenience.
Please send an email to SR-SRH.Webmaster@noaa.gov with any concerns.


Current Version
Previous Version:    01  02  03  04  05  06  07  08  09  10  11  12  13  14  15  16  17  18  19  20  21  22  23  24  25  26  27  28  29  30  
   31  32  33  34  35  
[Printable]
231
FTUS41 KPBZ 212000 AAA
TAFHLG
TAF AMD
KHLG 212027Z 2120/2218 33006KT P6SM SCT010 BKN025 OVC040
      TEMPO 2120/2122 SCT025 OVC040
     FM212300 31008KT P6SM VCSH BKN025
     FM220600 32005KT 5SM BR VCSH BKN008
     FM221200 33008KT P6SM BKN015 OVC025
     FM221500 33009KT P6SM BKN025=


U.S. Dept. of Commerce
NOAA National Weather Service
1325 East West Highway
Silver Spring, MD 20910
E-mail: w-nws.webmaster@noaa.gov
Page last modified: May 16, 2007
NATIONAL WEATHER SERVICE: for Safety, for Work, for Fun - FOR LIFE